カタログに戻る

SL-8 DEB

運用中LEO
NORAD 1335·DEBRIS·🇷🇺 Russia

打ち上げ Mar 15, 1965 から Baikonur Cosmodrome

Loading…

次のパス (今後24時間)

TLE

最新Source: Space-Track

元期: Sep 14, 2026, 08:02 UTC

1 01335U 65020E   26257.33490659  .00000659  00000-0  23350-3 0  9992
2 01335  56.0775  14.9142 0522367 300.6548  54.3917 13.87924489 22363

AllMySatでSL-8 DEBをリアルタイム追跡

Download on the App Store